Regional Weather Roundup
Issued by NWS

Home | Current Version | Previous Version | Text Only | Print | Product List | Glossary Off
Versions: 1 2 3 4 5 6 7 8 9 10 11 12 13 14 15 16 17 18 19 20 21 22 23 24 25 26 27 28 29 30 31 32 33 34 35 36 37 38 39 40 41 42 43 44 45 46 47 48 49 50

000
ASUS45 KBOU 241410
RWRCO

WEATHER ROUNDUP FOR COLORADO
NATIONAL WEATHER SERVICE DENVER/BOULDER CO
700 AM MST FRI NOV 24 2017

NOTE: "FAIR" INDICATES FEW OR NO CLOUDS BELOW 12000 FEET WITH NO
SIGNIFICANT WEATHER AND/OR OBSTRUCTIONS TO VISIBILITY.

COZ001>005-013-030-031-241500-
...NORTHWEST COLORADO...

CITY           SKY/WX    TMP DP  RH WIND       PRES   REMARKS
CRAIG          FAIR      31  29  92 CALM      30.03F
HAYDEN         FAIR      34  30  85 SE8       30.05F WCI  27
MEEKER         FAIR      39  32  76 E3        30.04F
RABBIT EARS PA CLOUDY    32  28  86 W7        30.16S WCI  26
STEAMBOAT SPGS FAIR      29  29  97 CALM      30.05S
WALDEN         FAIR      41  23  48 S8G17     30.04F
$$

COZ006>008-011-241500-
...WEST CENTRAL VALLEYS...

CITY           SKY/WX    TMP DP  RH WIND       PRES   REMARKS
GRAND JUNCTION CLOUDY    42  34  73 E5        30.08R
MONTROSE       FAIR      37  28  70 S5        30.11F
EAGLE          NOT AVBL
RIFLE          MOCLDY    36  33  89 CALM      30.09F
DELTA          MOCLDY    37  29  72 CALM      30.11R
NUCLA          FAIR      34  21  60 CALM      30.16S
$$

COZ017>023-064>068-241500-
...SOUTHWEST COLORADO...

CITY           SKY/WX    TMP DP  RH WIND       PRES   REMARKS
DURANGO        FAIR      22  20  92 NE6       30.16R WCI  14
CORTEZ         FAIR      24  20  84 E5        30.15S WCI  18
PAGOSA SPRINGS FAIR      27  26  94 CALM      30.19S
TELLURIDE      CLOUDY    40  14  34 SE7       30.25F
WOLF CREEK PAS FAIR      34   9  35 W9G18     30.37S WCI  26
$$

COZ009-010-012-014-032>034-037-058>063-241500-
...CENTRAL COLORADO...

CITY           SKY/WX    TMP DP  RH WIND       PRES   REMARKS
ASPEN          MOCLDY    35  26  69 SE5       30.11F WCI  31
BUENA VISTA    FAIR      47  17  29 NW9       30.08F
COPPER MTN     CLOUDY    36  21  55 W21       30.25S
BERTHOUD PASS  CLOUDY    28  18  64 W26G43    30.22F WCI  13
COTTONWOOD PAS FAIR      52  14  22 W23G47    30.14S
GUNNISON       FAIR      24  21  88 CALM      30.21F
KREMMLING      FAIR      37  30  75 E7        30.07S
LEADVILLE      FAIR      37  17  44 N9        30.16S
MONARCH PASS   FAIR      32  14  47 W28       30.38F WCI  18
SALIDA         FAIR      49  18  28 SW9       30.13S
SUNLIGHT       CLOUDY    34  21  60 SW12G21   30.26S WCI  25
WILKERSON PASS FAIR      37  10  32 W22G32    30.16F
$$

COZ069>075-241500-
...SAN LUIS VALLEY/SANGRE DE CRISTO MOUNTAINS...

CITY           SKY/WX    TMP DP  RH WIND       PRES   REMARKS
ALAMOSA        FAIR      14  11  87 E3        30.14S
DEL NORTE      FAIR      31  11  43 W7        30.15S WCI  25
LA VETA PASS   FAIR      36  18  48 MISG        N/A
SAGUACHE       FAIR      21  16  79 N6        30.15S WCI  14
$$

COZ035-036-038>040-241500-
...NORTHERN COLORADO FRONT RANGE...

CITY           SKY/WX    TMP DP  RH WIND       PRES   REMARKS
DENVER INTL AP MOCLDY    58  17  20 W10       29.84R
DMNS CITY PARK   N/A     47  19  32 NE8       29.85R
AURORA         PTCLDY    56  17  21 W7        29.86R
FRONT RANGE AP PTCLDY    59  18  20 SW12      29.85S
ERIE MUNI ARPT FAIR      62  24  23 W15G29    29.87S
BOULDER MUN AP FAIR      63  27  25 S8        29.81F
CENTENNIAL     FAIR      43  20  39 SE10      29.87R
BROOMFIELD     MOCLDY    63  21  20 N14G29    29.86S
FORT COLLINS   FAIR      53  28  38 VRB5      29.79F
LONGMONT       FAIR      64  26  23 W18G24    29.82F
$$

COZ041-046-047-076>085-087-088-241500-
...PIKES PEAK/PALMER DIVIDE AND SOUTHERN FOOTHILLS...

CITY           SKY/WX    TMP DP  RH WIND       PRES   REMARKS
COLO. SPRINGS  MOCLDY    53  13  20 E8        29.91F
A. F. ACADEMY  FAIR      45  13  27 W3        29.92S
SCHRIEVER AFB  FAIR      62  10  13 NW21G36   29.92F
CHEYENNE MTN   FAIR      55  10  16 SW3       29.90S
ELLICOTT         N/A    N/A N/A N/A W8        29.90S
FALCON         FAIR      48   9  20 NW5       29.96R
FORT CARSON    FAIR      46  18  32 NE5       29.89S
LIMON          FAIR      36  21  54 N9        29.85S
MONUMENT HILL  FAIR      48  16  27 SW10      29.96R
CANON CITY     FAIR      41  21  45 N3        29.90S
WALSENBURG     FAIR      52  21  30 SW3       29.96F
TRINIDAD       FAIR      49  18  29 W16G26    29.92S
$$

COZ042>045-048>051-090-091-241500-
...NORTHEAST COLORADO...

CITY           SKY/WX    TMP DP  RH WIND       PRES   REMARKS
GREELEY ARPT   FAIR      32  26  78 VRB5      29.81S WCI  27
AKRON          FAIR      45  24  43 SW10      29.79S
BURLINGTON     FAIR      45  29  53 W9        29.79S
WRAY           NOT AVBL
YUMA           FAIR      37  27  65 SW10      29.77R
STERLING       FAIR      37  30  75 SW6       29.77S
HOLYOKE        FAIR      43  30  61 W8        29.76R
FORT MORGAN    FAIR      41  24  50 W6        29.81R
$$

COZ086-089-092>099-241500-
...SOUTHEAST COLORADO...

CITY           SKY/WX    TMP DP  RH WIND       PRES   REMARKS
PUEBLO         FAIR      44  24  45 SW5       29.86F
LA JUNTA       FAIR      49  25  39 W13       29.82S
LAMAR          FAIR      42  29  59 W8        29.79S
SPRINGFIELD      N/A     55  25  31 W12       29.81F
$$



USA.gov is the U.S. government's official web portal to all federal, state and local government web resources and services.